RYR9004 LOWW-LIBD

Flight info

Callsign RYR9004
Flight time 1h 6m
Altitude 37000
Route STEIN4B/16 STEIN DCT NOHAT DCT KOPRY DCT DIXUM DCT ORAKA DCT AIOSA DCT BANAV
Aircraft A320/M-SDE3FGHIRWY/LB1

Departure

Time 2026-05-04 18:20
Airport Vienna International Airport (LOWW)

Arrival

Time 2026-05-04 19:26
Airport Bari Karol Wojtyła International Airport (LIBD)
Time Latitude Longitude Altitude Speed Heading
2026-05-04 17:43 48.11955 16.55592 622 ft 0 kts 64°
2026-05-04 18:11 48.11946 16.55566 627 ft 4 kts 64°
2026-05-04 18:11 48.11934 16.55530 623 ft 4 kts 64°
2026-05-04 18:11 48.11923 16.55493 618 ft 4 kts 65°
2026-05-04 18:12 48.11912 16.55456 621 ft 4 kts 72°
2026-05-04 18:12 48.11907 16.55418 620 ft 4 kts 106°
2026-05-04 18:12 48.11909 16.55410 619 ft 0 kts 116°
2026-05-04 18:15 48.11893 16.55456 615 ft 10 kts 117°
2026-05-04 18:15 48.11852 16.55582 614 ft 16 kts 115°
2026-05-04 18:16 48.11798 16.55745 614 ft 19 kts 117°
2026-05-04 18:16 48.11737 16.55937 617 ft 21 kts 115°
2026-05-04 18:16 48.11673 16.56134 618 ft 21 kts 116°
2026-05-04 18:17 48.11542 16.56534 617 ft 21 kts 116°
2026-05-04 18:17 48.11474 16.56745 611 ft 24 kts 115°
2026-05-04 18:17 48.11329 16.57188 612 ft 23 kts 116°
2026-05-04 18:18 48.11258 16.57406 611 ft 23 kts 116°
2026-05-04 18:18 48.11187 16.57624 614 ft 23 kts 116°
2026-05-04 18:18 48.11119 16.57834 616 ft 22 kts 116°
2026-05-04 18:18 48.11051 16.58037 620 ft 22 kts 116°
2026-05-04 18:19 48.10930 16.58261 612 ft 10 kts 164°
2026-05-04 18:19 48.10734 16.58344 619 ft 63 kts 164°
2026-05-04 18:19 48.10096 16.58615 614 ft 125 kts 164°
2026-05-04 18:20 48.09114 16.59030 833 ft 154 kts 163°
2026-05-04 18:20 48.08098 16.59452 1585 ft 150 kts 166°
2026-05-04 18:20 48.07103 16.59880 2339 ft 149 kts 166°
2026-05-04 18:20 48.06024 16.60330 2658 ft 172 kts 167°
2026-05-04 18:21 48.04794 16.60844 2940 ft 196 kts 167°
2026-05-04 18:21 48.03393 16.61431 3290 ft 221 kts 167°
2026-05-04 18:21 48.01836 16.62085 3744 ft 242 kts 167°
2026-05-04 18:21 48.00184 16.62786 4515 ft 250 kts 167°
2026-05-04 18:22 47.98471 16.63374 5281 ft 256 kts 179°
2026-05-04 18:22 47.96674 16.63330 6027 ft 262 kts 184°
2026-05-04 18:22 47.94825 16.63406 6791 ft 270 kts 176°
2026-05-04 18:22 47.92951 16.63737 7597 ft 273 kts 175°
2026-05-04 18:23 47.91057 16.64113 8429 ft 276 kts 174°
2026-05-04 18:23 47.89147 16.64504 9280 ft 278 kts 174°
2026-05-04 18:23 47.87221 16.64902 10085 ft 281 kts 174°
2026-05-04 18:23 47.85219 16.65309 10447 ft 301 kts 174°
2026-05-04 18:24 47.83060 16.65739 10681 ft 324 kts 174°
2026-05-04 18:24 47.80793 16.66187 11221 ft 332 kts 174°
2026-05-04 18:24 47.78484 16.66644 11939 ft 336 kts 174°
2026-05-04 18:24 47.76152 16.67105 12666 ft 340 kts 174°
2026-05-04 18:25 47.73799 16.67572 13399 ft 343 kts 174°
2026-05-04 18:25 47.71422 16.68045 14078 ft 346 kts 174°
2026-05-04 18:25 47.69025 16.68519 14699 ft 350 kts 174°
2026-05-04 18:25 47.66602 16.68996 15318 ft 353 kts 174°
2026-05-04 18:26 47.64153 16.69476 15930 ft 357 kts 174°
2026-05-04 18:26 47.61680 16.69960 16530 ft 360 kts 174°
2026-05-04 18:26 47.59184 16.70452 17138 ft 364 kts 174°
2026-05-04 18:26 47.56695 16.70944 17718 ft 367 kts 174°
2026-05-04 18:27 47.54115 16.71451 18312 ft 371 kts 174°
2026-05-04 18:27 47.51541 16.71954 18812 ft 375 kts 174°
2026-05-04 18:27 47.48974 16.72458 19314 ft 379 kts 174°
2026-05-04 18:27 47.46347 16.72976 19812 ft 383 kts 174°
2026-05-04 18:28 47.43691 16.73497 20310 ft 387 kts 174°
2026-05-04 18:28 47.41008 16.74019 20808 ft 391 kts 174°
2026-05-04 18:28 47.38298 16.74540 21304 ft 395 kts 174°
2026-05-04 18:28 47.35559 16.75064 21796 ft 399 kts 174°
2026-05-04 18:29 47.32795 16.75598 22282 ft 403 kts 174°
2026-05-04 18:29 47.30004 16.76139 22754 ft 406 kts 174°
2026-05-04 18:29 47.27186 16.76684 23222 ft 410 kts 174°
2026-05-04 18:29 47.24348 16.77233 23653 ft 414 kts 174°
2026-05-04 18:30 47.18594 16.78346 24407 ft 420 kts 174°
2026-05-04 18:30 47.15687 16.78908 24765 ft 423 kts 174°
2026-05-04 18:30 47.12765 16.79477 25132 ft 425 kts 173°
2026-05-04 18:31 47.09823 16.80051 25477 ft 428 kts 173°
2026-05-04 18:31 47.06861 16.80625 25823 ft 431 kts 173°
2026-05-04 18:31 47.03880 16.81196 26173 ft 433 kts 173°
2026-05-04 18:31 47.00884 16.81766 26516 ft 435 kts 173°
2026-05-04 18:32 46.97871 16.82338 26854 ft 438 kts 173°
2026-05-04 18:32 46.94843 16.82916 27198 ft 440 kts 173°
2026-05-04 18:32 46.91795 16.83496 27525 ft 443 kts 173°
2026-05-04 18:32 46.88731 16.84080 27854 ft 445 kts 173°
2026-05-04 18:33 46.85652 16.84667 28164 ft 447 kts 173°
2026-05-04 18:33 46.82558 16.85252 28465 ft 449 kts 173°
2026-05-04 18:33 46.79451 16.85844 28785 ft 452 kts 173°
2026-05-04 18:33 46.76328 16.86438 29084 ft 454 kts 173°
2026-05-04 18:34 46.73188 16.87037 29367 ft 456 kts 173°
2026-05-04 18:34 46.70033 16.87634 29636 ft 458 kts 173°
2026-05-04 18:34 46.66868 16.88231 29911 ft 460 kts 173°
2026-05-04 18:34 46.63686 16.88831 30155 ft 462 kts 173°
2026-05-04 18:35 46.60491 16.89436 30363 ft 464 kts 173°
2026-05-04 18:35 46.57289 16.90040 30587 ft 465 kts 173°
2026-05-04 18:35 46.54070 16.90646 30800 ft 466 kts 173°
2026-05-04 18:35 46.50848 16.91253 31053 ft 466 kts 173°
2026-05-04 18:36 46.47637 16.91859 31357 ft 465 kts 173°
2026-05-04 18:36 46.44430 16.92463 31653 ft 464 kts 173°
2026-05-04 18:36 46.41231 16.93064 31953 ft 463 kts 173°
2026-05-04 18:36 46.38032 16.93665 32242 ft 463 kts 173°
2026-05-04 18:37 46.34842 16.94264 32525 ft 462 kts 173°
2026-05-04 18:37 46.31652 16.94862 32815 ft 462 kts 173°
2026-05-04 18:37 46.28470 16.95456 33103 ft 461 kts 174°
2026-05-04 18:37 46.25290 16.96046 33394 ft 460 kts 174°
2026-05-04 18:38 46.22115 16.96578 33679 ft 460 kts 175°
2026-05-04 18:38 46.18930 16.96958 33969 ft 459 kts 177°
2026-05-04 18:38 46.15747 16.97228 34223 ft 458 kts 178°
2026-05-04 18:38 46.12567 16.97445 34474 ft 457 kts 179°
2026-05-04 18:39 46.09390 16.97652 34718 ft 456 kts 179°
2026-05-04 18:39 46.06219 16.97876 34960 ft 456 kts 178°
2026-05-04 18:39 46.03055 16.98129 35187 ft 456 kts 178°
2026-05-04 18:39 45.99895 16.98409 35414 ft 455 kts 178°
2026-05-04 18:40 45.96733 16.98703 35634 ft 455 kts 178°
2026-05-04 18:40 45.93578 16.99000 35856 ft 454 kts 178°
2026-05-04 18:40 45.90423 16.99291 35998 ft 454 kts 178°
2026-05-04 18:41 45.84117 16.99862 36021 ft 454 kts 178°
2026-05-04 18:41 45.77813 17.00426 36021 ft 454 kts 178°
2026-05-04 18:42 45.71507 17.00989 36024 ft 454 kts 178°
2026-05-04 18:42 45.65194 17.01547 36024 ft 454 kts 178°
2026-05-04 18:43 45.58881 17.02094 36026 ft 455 kts 178°
2026-05-04 18:43 45.52564 17.02655 36028 ft 455 kts 178°
2026-05-04 18:44 45.46249 17.03216 36029 ft 455 kts 178°
2026-05-04 18:44 45.39926 17.03770 36029 ft 455 kts 178°
2026-05-04 18:45 45.33601 17.04321 36032 ft 455 kts 178°
2026-05-04 18:45 45.27276 17.04872 36032 ft 456 kts 178°
2026-05-04 18:46 45.20986 17.05422 36033 ft 456 kts 178°
2026-05-04 18:46 45.14644 17.05979 36031 ft 456 kts 178°
2026-05-04 18:47 45.08301 17.06533 36034 ft 457 kts 178°
2026-05-04 18:47 45.01953 17.07077 36029 ft 457 kts 178°
2026-05-04 18:48 44.95601 17.07626 36032 ft 458 kts 178°
2026-05-04 18:48 44.89245 17.08185 36034 ft 458 kts 178°
2026-05-04 18:49 44.82884 17.08742 36039 ft 458 kts 178°
2026-05-04 18:49 44.76513 17.09281 36043 ft 459 kts 178°
2026-05-04 18:50 44.70142 17.09826 36050 ft 459 kts 178°
2026-05-04 18:50 44.63766 17.10369 36058 ft 459 kts 178°
2026-05-04 18:51 44.57387 17.10912 36071 ft 459 kts 178°
2026-05-04 18:51 44.51006 17.11461 36076 ft 459 kts 178°
2026-05-04 18:52 44.44623 17.12005 36081 ft 459 kts 178°
2026-05-04 18:52 44.38284 17.12539 36091 ft 459 kts 178°
2026-05-04 18:53 44.31902 17.13084 36095 ft 460 kts 178°
2026-05-04 18:53 44.26050 17.13577 36102 ft 460 kts 178°
2026-05-04 18:54 44.19661 17.14113 36108 ft 460 kts 178°
2026-05-04 18:54 44.13269 17.14659 36114 ft 460 kts 178°
2026-05-04 18:55 44.06872 17.15191 36118 ft 461 kts 178°
2026-05-04 18:55 43.97274 17.15983 36118 ft 461 kts 179°
2026-05-04 18:56 43.90875 17.16519 36132 ft 461 kts 178°
2026-05-04 18:56 43.84473 17.17057 36127 ft 461 kts 179°
2026-05-04 18:57 43.78067 17.17590 36140 ft 461 kts 179°
2026-05-04 18:57 43.71659 17.18132 36136 ft 461 kts 179°
2026-05-04 18:58 43.65251 17.18660 36140 ft 462 kts 179°
2026-05-04 18:58 43.58930 17.19177 36138 ft 462 kts 179°
2026-05-04 18:59 43.52517 17.19703 36140 ft 462 kts 179°
2026-05-04 18:59 43.46097 17.20113 36140 ft 461 kts 181°
2026-05-04 19:00 43.39680 17.20106 36137 ft 461 kts 183°
2026-05-04 19:00 43.33265 17.19980 36124 ft 461 kts 183°
2026-05-04 19:01 43.27887 17.19929 36134 ft 462 kts 182°
2026-05-04 19:01 43.20413 17.19956 36135 ft 462 kts 182°
2026-05-04 19:02 43.15027 17.19983 36130 ft 462 kts 182°
2026-05-04 19:02 43.08635 17.20004 36136 ft 462 kts 182°
2026-05-04 19:03 43.02155 17.20007 36124 ft 463 kts 183°
2026-05-04 19:03 42.95759 17.20009 36131 ft 463 kts 182°
2026-05-04 19:04 42.89310 17.20028 36133 ft 464 kts 183°
2026-05-04 19:04 42.82912 17.20034 36130 ft 464 kts 183°
2026-05-04 19:05 42.76448 17.20024 36134 ft 464 kts 183°
2026-05-04 19:05 42.69982 17.20027 36135 ft 465 kts 183°
2026-05-04 19:06 42.63520 17.20037 35684 ft 463 kts 183°
2026-05-04 19:06 42.60292 17.20043 34950 ft 464 kts 182°
2026-05-04 19:06 42.57065 17.20048 34239 ft 464 kts 182°
2026-05-04 19:07 42.53829 17.20049 33421 ft 465 kts 182°
2026-05-04 19:07 42.50595 17.20142 32716 ft 464 kts 180°
2026-05-04 19:07 42.47383 17.20359 32113 ft 461 kts 179°
2026-05-04 19:07 42.44195 17.20655 31531 ft 457 kts 178°
2026-05-04 19:08 42.41037 17.20974 30966 ft 454 kts 178°
2026-05-04 19:08 42.37903 17.21286 30408 ft 450 kts 178°
2026-05-04 19:08 42.34788 17.21570 29832 ft 447 kts 179°
2026-05-04 19:08 42.31699 17.21824 29240 ft 443 kts 179°
2026-05-04 19:09 42.28637 17.22059 28673 ft 439 kts 179°
2026-05-04 19:09 42.25641 17.22286 28129 ft 435 kts 179°
2026-05-04 19:09 42.22593 17.22517 27582 ft 431 kts 179°
2026-05-04 19:09 42.19650 17.22740 27061 ft 428 kts 179°
2026-05-04 19:10 42.16736 17.22963 26553 ft 424 kts 179°
2026-05-04 19:10 42.13796 17.23191 26047 ft 421 kts 179°
2026-05-04 19:10 42.10888 17.23419 25557 ft 418 kts 179°
2026-05-04 19:10 42.07997 17.23649 25088 ft 414 kts 179°
2026-05-04 19:11 42.05129 17.23877 24611 ft 411 kts 179°
2026-05-04 19:11 42.02280 17.24103 24158 ft 409 kts 179°
2026-05-04 19:11 41.99449 17.24324 23711 ft 406 kts 179°
2026-05-04 19:11 41.96653 17.24235 23191 ft 399 kts 191°
2026-05-04 19:12 41.94019 17.23217 22709 ft 391 kts 206°
2026-05-04 19:12 41.89131 17.20139 21723 ft 385 kts 208°
2026-05-04 19:12 41.86725 17.18586 21258 ft 382 kts 208°
2026-05-04 19:13 41.84337 17.17037 20801 ft 379 kts 208°
2026-05-04 19:13 41.81971 17.15501 20349 ft 377 kts 207°
2026-05-04 19:13 41.79622 17.13981 19919 ft 374 kts 207°
2026-05-04 19:13 41.77285 17.12471 19495 ft 371 kts 207°
2026-05-04 19:14 41.74972 17.10979 19073 ft 368 kts 207°
2026-05-04 19:14 41.72669 17.09500 18662 ft 366 kts 207°
2026-05-04 19:14 41.70383 17.08034 18238 ft 363 kts 206°
2026-05-04 19:14 41.68114 17.06579 17778 ft 360 kts 206°
2026-05-04 19:15 41.65862 17.05134 17321 ft 358 kts 206°
2026-05-04 19:15 41.63623 17.03702 16775 ft 357 kts 206°
2026-05-04 19:15 41.61335 17.02238 15785 ft 372 kts 206°
2026-05-04 19:15 41.58989 17.00732 15126 ft 375 kts 206°
2026-05-04 19:16 41.56644 16.99226 14614 ft 373 kts 206°
2026-05-04 19:16 41.54325 16.97741 14209 ft 373 kts 206°
2026-05-04 19:16 41.51993 16.96250 13792 ft 371 kts 206°
2026-05-04 19:16 41.49674 16.94771 13344 ft 368 kts 206°
2026-05-04 19:17 41.47405 16.93324 12910 ft 366 kts 206°
2026-05-04 19:17 41.45104 16.91861 12471 ft 370 kts 206°
2026-05-04 19:17 41.42773 16.90381 12043 ft 372 kts 206°
2026-05-04 19:17 41.40437 16.88899 11617 ft 371 kts 205°
2026-05-04 19:18 41.38114 16.87425 11195 ft 370 kts 205°
2026-05-04 19:18 41.35796 16.85953 10780 ft 368 kts 205°
2026-05-04 19:18 41.33495 16.84491 10375 ft 366 kts 205°
2026-05-04 19:18 41.31243 16.82985 9960 ft 358 kts 211°
2026-05-04 19:19 41.29329 16.81026 9511 ft 338 kts 225°
2026-05-04 19:19 41.27876 16.78694 9061 ft 319 kts 237°
2026-05-04 19:19 41.26771 16.76229 8638 ft 303 kts 240°
2026-05-04 19:19 41.25728 16.73875 8206 ft 289 kts 240°
2026-05-04 19:20 41.24721 16.71611 7777 ft 281 kts 240°
2026-05-04 19:20 41.23734 16.69401 7363 ft 276 kts 240°
2026-05-04 19:20 41.22757 16.67215 7081 ft 275 kts 240°
2026-05-04 19:20 41.21797 16.65062 6864 ft 266 kts 240°
2026-05-04 19:21 41.20878 16.62964 6611 ft 259 kts 244°
2026-05-04 19:21 41.20212 16.60809 6337 ft 253 kts 250°
2026-05-04 19:21 41.19595 16.58627 5911 ft 254 kts 249°
2026-05-04 19:21 41.18963 16.56415 5377 ft 258 kts 249°
2026-05-04 19:22 41.18152 16.54297 4862 ft 262 kts 230°
2026-05-04 19:22 41.16678 16.52893 4489 ft 266 kts 200°
2026-05-04 19:22 41.14859 16.52608 4182 ft 266 kts 171°
2026-05-04 19:22 41.13156 16.53496 3882 ft 262 kts 146°
2026-05-04 19:23 41.11700 16.54903 3573 ft 256 kts 142°
2026-05-04 19:23 41.10335 16.56386 3288 ft 251 kts 133°
2026-05-04 19:23 41.09501 16.58325 2950 ft 238 kts 104°
2026-05-04 19:23 41.09451 16.60470 2451 ft 236 kts 76°
2026-05-04 19:24 41.09996 16.62495 2049 ft 229 kts 70°
2026-05-04 19:24 41.10551 16.64430 1729 ft 219 kts 70°
2026-05-04 19:24 41.11070 16.66251 1449 ft 204 kts 70°
2026-05-04 19:24 41.11551 16.67944 1213 ft 187 kts 70°
2026-05-04 19:25 41.11994 16.69503 943 ft 175 kts 70°
2026-05-04 19:25 41.12406 16.70957 719 ft 162 kts 71°
2026-05-04 19:25 41.12784 16.72289 525 ft 148 kts 71°
2026-05-04 19:25 41.13136 16.73525 330 ft 141 kts 71°
2026-05-04 19:26 41.13477 16.74724 179 ft 138 kts 70°
2026-05-04 19:26 41.13785 16.75820 151 ft 106 kts 69°
2026-05-04 19:26 41.13973 16.76484 149 ft 40 kts 70°
2026-05-04 19:26 41.13992 16.76655 149 ft 14 kts 114°
2026-05-04 19:27 41.13959 16.76720 153 ft 3 kts 162°
2026-05-04 19:27 41.13946 16.76716 154 ft 3 kts 195°
2026-05-04 19:27 41.13910 16.76690 156 ft 9 kts 212°
2026-05-04 19:27 41.13842 16.76630 157 ft 13 kts 214°
2026-05-04 19:28 41.13786 16.76555 158 ft 10 kts 201°
2026-05-04 19:28 41.13730 16.76562 158 ft 7 kts 184°
2026-05-04 19:28 41.13673 16.76533 158 ft 11 kts 208°
2026-05-04 19:28 41.13627 16.76430 159 ft 12 kts 250°
2026-05-04 19:29 41.13599 16.76373 159 ft 5 kts 183°
2026-05-04 19:29 41.13570 16.76386 159 ft 4 kts 159°
2026-05-04 19:29 41.13548 16.76397 159 ft 3 kts 158°
2026-05-04 19:29 41.13537 16.76403 159 ft 0 kts 158°